Regional Weather Roundup
Issued by NWS

Home | Current Version | Previous Version | Graphics & Text | Print | Product List | Glossary Off
Versions: 1 2 3 4 5 6 7 8 9 10 11 12 13 14 15 16 17 18 19 20 21 22 23 24 25 26 27 28 29 30 31 32 33 34 35 36 37 38 39 40 41 42 43 44 45 46 47 48 49 50

000
ASUS43 KDMX 271907
RWRIA

WEATHER ROUNDUP FOR IOWA
NATIONAL WEATHER SERVICE DES MOINES IA
200 PM CDT FRI MAR 27 2015

NOTE: "FAIR" INDICATES FEW OR NO CLOUDS BELOW 12,000 FEET WITH NO
SIGNIFICANT WEATHER AND/OR OBSTRUCTIONS TO VISIBILITY.

* - THESE STATIONS ARE NOT NWS STATIONS...THUS NOT UNDER NWS
QUALITY CONTROL.  THEY ALSO DO NOT REPORT WEATHER SUCH
AS PRECIPITATION OR FOG.

IAZ001>003-012>014-020>022-031>034-043>046-272000-
   NORTHWEST IOWA

CITY           SKY/WX    TMP DP  RH WIND       PRES   REMARKS
CARROLL *      SUNNY     36   9  32 VRB3      30.20F
CHEROKEE *       N/A     36  10  35 SW5       30.19F WCI  32
DENISON *      SUNNY     36  10  35 CALM      30.18F
LE MARS *      SUNNY     36  12  38 S8        30.20F WCI  29
ORANGE CITY *  SUNNY     34   9  35 CALM      30.18F
SHELDON *      MOSUNNY   32   9  37 CALM      30.17F
SIOUX CITY       N/A     38  12  34 VRB5      30.20F WCI  34
SPENCER          N/A     34   8  33 SW5       30.19F WCI  30
STORM LAKE *   SUNNY     34   9  35 CALM      30.19F
$$

IAZ055>058-069>071-079>083-090>094-272000-
   SOUTHWEST IOWA

CITY           SKY/WX    TMP DP  RH WIND       PRES   REMARKS
ATLANTIC *     SUNNY     37  14  38 VRB5      30.21F WCI  34
AUDUBON *      SUNNY     39   7  26 CALM      30.21F
CLARINDA *     SUNNY     37  16  41 NE6G12    30.24F WCI  33
COUNCIL BLFS * SUNNY     37  16  41 VRB5      30.21F WCI  34
CRESTON *      SUNNY     36  14  41 VRB5G13   30.21F WCI  32
HARLAN  *      SUNNY     37  14  38 VRB3G12   30.24F
LAMONI           N/A     40  13  33 VRB7      30.21F
RED OAK *      SUNNY     37  18  44 CALM      30.23F
SHENANDOAH *   SUNNY     37  18  44 NE6       30.24F WCI  33
$$

IAZ047>049-059>061-072>074-084-272000-
   CENTRAL IOWA

CITY           SKY/WX    TMP DP  RH WIND       PRES   REMARKS
AMES             N/A     36  10  34 CALM      30.22F
ANKENY *       SUNNY     37  10  32 VRB6G12   30.22F WCI  33
CHARITON *     SUNNY     37  14  38 NW10      30.21F WCI  30
DES MOINES     PTSUNNY   40   9  28 E9        30.22F WCI  34
GRINNELL*        N/A     36   9  32 N3        30.21F
KNOXVILLE *    SUNNY     36   9  32 NE8G16    30.20F WCI  29
MARSHALLTOWN     N/A     35  10  35 MISG      30.21F
PELLA *          N/A     39  14  35 N7        30.23F WCI  34
PERRY *          N/A     37  10  32 N3        30.21F
$$

IAZ004>006-015-016-023>025-035-036-272000-
   NORTH CENTRAL IOWA

CITY           SKY/WX    TMP DP  RH WIND       PRES   REMARKS
ALGONA *       SUNNY     34  10  37 CALM      30.21F
CLARION *      SUNNY     32  12  43 CALM      30.21F
ESTHERVILLE      N/A     34  10  37 CALM      30.19F
FORT DODGE *     N/A     36  10  35 CALM      30.22F
MASON CITY       N/A     35  10  35 N6        30.21F WCI  30
FOREST CITY *  SUNNY     32  10  40 N7        30.20F WCI  26
IOWA FALLS *     N/A     34  10  37 N5        30.22F WCI  30
$$

IAZ007>011-017>019-026>030-037>042-050>054-066-272000-
   NORTHEAST IOWA

CITY           SKY/WX    TMP DP  RH WIND       PRES   REMARKS
CEDAR RAPIDS     N/A     34   8  33 VRB3      30.20F
CHARLES CITY * SUNNY     30  10  43 N12       30.22F WCI  21
CLINTON *        N/A     34  10  37 NE9G18    30.23F WCI  26
DECORAH *      SUNNY     27   7  43 NW12      30.20F WCI  16
DUBUQUE          N/A     32   7  35 N7        30.18F WCI  26
MONTICELLO *   SUNNY     34   9  35 N12       30.20F WCI  25
OELWEIN *      SUNNY     32  10  40 N10G16    30.21F WCI  24
WATERLOO         N/A     34   7  32 VRB3      30.21F
$$

IAZ064-065-067-068-078-272000-
   EAST CENTRAL IOWA

CITY           SKY/WX    TMP DP  RH WIND       PRES   REMARKS
DAVENPORT        N/A     35  10  35 MISG      30.20F
IOWA CITY        N/A     35   7  31 VRB5      30.22F WCI  31
MT. PLEASANT *   N/A     36   9  32 N12       30.21F WCI  27
MUSCATINE *    SUNNY     37   5  25 N13       30.22F WCI  29
QUAD CITIES      N/A     35   9  33 NE9       30.20F WCI  28
$$

IAZ062-063-075>077-085>089-095>099-272000-
   SOUTHEAST IOWA

CITY           SKY/WX    TMP DP  RH WIND       PRES   REMARKS
BURLINGTON       N/A     37   9  31 NW13      30.19F WCI  29
FAIRFIELD *    SUNNY     37   5  25 N13       30.21F WCI  29
FORT MADISON * SUNNY     37  12  35 N13G18    30.20F WCI  29
KEOKUK *       SUNNY     39  10  30 NW9G18    30.19F WCI  33
OSKALOOSA *      N/A     36   9  32 N12       30.21F WCI  27
CENTERVILLE *  SUNNY     39  14  35 N7        30.21F WCI  34
OTTUMWA          N/A     39   8  27 N16       30.21F WCI  30
WASHINGTON *   SUNNY     36   7  30 N10       30.21F WCI  28
$$

ABBREVIATIONS USED IN REMARKS
   TC - TEMPERATURES IN CELSIUS
  WCI - WIND CHILL INDEX
   HX - HEAT INDEX
  VSB - VISIBILITY
$$




USA.gov is the U.S. government's official web portal to all federal, state and local government web resources and services.